Skip Page Navigation
NASA JPL Caltech
NASA Logo - Jet Propulsion Laboratory + View the NASA Portal
+ Center for Near-Earth Object Studies
JPL Home Earth Solar System Stars & Galaxies Technology
JPL Solar System Dynamics
BODIES ORBITS EPHEMERIDES TOOLS PHYSICAL DATA DISCOVERY FAQ SITE MAP
JPL Small-Body Database Browser
Search: [ help ]  
312932 (2011 WV69)
Classification: Main-belt Asteroid          SPK-ID: 2312932
Ephemeris | Orbit Diagram | Orbital Elements | Mission Design | Physical Parameters | Discovery Circumstances ]

[ show orbit diagram ]
Orbital Elements at Epoch 2459000.5 (2020-May-31.0) TDB
Reference: JPL 12 (heliocentric ecliptic J2000)
 Element Value Uncertainty (1-sigma)   Units 
e .1070070641606924 3.737e-08  
a 2.424432712895589 1.8299e-08 au
q 2.16500128603349 8.8044e-08 au
i 5.416802394642685 6.394e-06 deg
node 302.9590141280618 4.3736e-05 deg
peri 102.1836211948642 5.371e-05 deg
M 104.7919019755796 3.1068e-05 deg
tp 2458599.135597303507
(2019-Apr-25.63559730)
0.00011808 TDB
period 1378.839225615061
3.78
1.561e-05
4.274e-08
d
yr
n .2610891779927528 2.9559e-09 deg/d
Q 2.683864139757689 2.0257e-08 au
  Orbit Determination Parameters
   # obs. used (total)      215  
   data-arc span      6004 days (16.44 yr)  
   first obs. used      2003-08-28  
   last obs. used      2020-02-04  
   planetary ephem.      DE431  
   SB-pert. ephem.      SB431-N16  
   condition code      0  
   norm. resid. RMS      .56849  
   source      ORB  
   producer      Otto Matic  
   solution date      2020-Feb-25 18:48:56  

Additional Information
 Earth MOID = 1.1821 au 
 Jupiter MOID = 2.64822 au 
 T_jup = 3.498 
[ show covariance matrix ]

Ephemeris | Orbit Diagram | Orbital Elements | Mission Design | Physical Parameters | Discovery Circumstances ]

Physical Parameter Table
Parameter Symbol Value Units Sigma Reference Notes
absolute magnitude H 16.9   n/a MPO455307  

312932 (2011 WV69)          Discovered 2003-Aug-28 by NEAT at Palomar
Reference: 20120109/Numbers.arcLast Updated: 2012-01-11

Alternate Designations
 2011 WV69 = 2007 TP242 
Ephemeris | Orbit Diagram | Orbital Elements | Mission Design | Physical Parameters | Discovery Circumstances ]
ABOUT SSD CREDITS/AWARDS PRIVACY/COPYRIGHT GLOSSARY LINKS
FirstGov 2020-Jul-16 17:50 UT
(server date/time)  
NASA Home Page
Site Manager:   Ryan S. Park
Webmaster  Alan B. Chamberlin